Home   Weather   Worb   Past weeks

Flag for Switzerland Past Weather in Worb, Bern, Switzerland — Yesterday and Last 2 Weeks

Now
28 °F

Ice fog.


Feels Like: 28 °F
Forecast: 21 / 43 °F
Wind: 1 mph from North

Location: Bern / Belp

Current Time: Dec 4, 2016 at 7:35:07 pm

Latest Report: Dec 4, 2016 at 6:50 pm


Visibility: 4 mi

Pressure: 30.24 "Hg (28.10 "Hg at 583m altitude)

Humidity: 93%

Dew Point: 27 °F

Location of WorbLocation

Past Weather in Worb — Graph

°F

Worb Temperature Yesterday

Maximum temperature yesterday: 39 °F (at 2:20 pm)
Minimum temperature yesterday: 21 °F (at 3:20 am)
Average temperature yesterday: 31 °F

High & Low Weather Summary for the Past Weeks

 TemperatureHumidityPressure
High55 °F (Nov 22, 12:50 pm)100% (Nov 19, 9:20 pm)30.57 "Hg (Nov 19, 9:20 pm)
Low19 °F (Dec 1, 7:20 am)53% (Dec 1, 2:20 pm)29.62 "Hg (Nov 21, 7:20 am)
Average37 °F89%30.05 "Hg
* Reported Nov 19 6:20 pm — Dec 4 6:20 pm, Worb, Weather by CustomWeather, © 2016

Note: Actual official high and low records may vary slightly from our data, if they occured in-between our weather recording intervals... More about our weather records

Advertising

Worb Weather History for the Previous 24 Hours

Scroll right to see more
 ConditionsComfort  
Time TempWeatherWind HumidityBarometerVisibility
6:20 pm
Sun, Dec 4
28 °FClear.2 mph93%30.24 "Hg5 mi
5:50 pm32 °FClear.No wind87%30.24 "Hg5 mi
5:20 pm32 °FChilly.No wind93%30.24 "Hg5 mi
4:50 pm34 °FClear.1 mph87%30.21 "Hg5 mi
4:20 pm37 °FClear.3 mph75%30.21 "Hg5 mi
3:50 pm37 °FClear.3 mph75%30.21 "Hg5 mi
3:20 pm41 °FClear.2 mph66%30.21 "Hg5 mi
2:50 pm41 °FClear.3 mph70%30.21 "Hg5 mi
2:20 pm39 °FSunny.2 mph70%30.21 "Hg10 mi
1:50 pm39 °FSunny.3 mph70%30.24 "Hg10 mi
1:20 pm37 °FClear.2 mph75%30.24 "Hg5 mi
12:50 pm37 °FPassing clouds.1 mph75%30.24 "Hg5 mi
12:20 pm37 °FPassing clouds.2 mph75%30.24 "Hg5 mi
11:50 am36 °FScattered clouds.2 mph75%30.24 "Hg6 mi
11:20 am34 °FPartly sunny.No wind81%30.27 "Hg6 mi
10:50 am34 °FOvercast.1 mph81%30.27 "Hg6 mi
10:20 am32 °FOvercast.No wind87%30.24 "Hg4 mi
9:50 am32 °FOvercast.2 mph93%30.24 "Hg4 mi
9:20 am32 °FOvercast.No wind93%30.24 "Hg4 mi
8:50 am30 °FOvercast.No wind93%30.24 "Hg4 mi
8:20 am30 °FOvercast.No wind93%30.21 "Hg4 mi
7:50 am30 °FOvercast.2 mph93%30.21 "Hg4 mi
7:20 am30 °FOvercast.2 mph93%30.21 "Hg4 mi
6:50 am30 °FOvercast.2 mph93%30.21 "Hg4 mi
6:20 am30 °FOvercast.3 mph86%30.21 "Hg4 mi
5:50 am30 °FOvercast.2 mph93%30.21 "Hg4 mi
5:20 am30 °FOvercast.2 mph93%30.21 "Hg4 mi
4:50 am30 °FOvercast.3 mph93%30.21 "Hg4 mi
4:20 am30 °FOvercast.2 mph93%30.21 "Hg4 mi
3:50 am30 °FOvercast.3 mph93%30.21 "Hg4 mi
3:20 am32 °FOvercast.2 mph93%30.21 "Hg4 mi
2:50 am30 °FOvercast.2 mph100%30.18 "Hg4 mi
2:20 am30 °FOvercast.2 mph93%30.18 "Hg4 mi
1:50 am30 °FOvercast.2 mph93%30.18 "Hg4 mi
1:20 am30 °FOvercast.3 mph93%30.18 "Hg4 mi
12:50 am32 °FOvercast.2 mph93%30.18 "Hg4 mi
12:20 am32 °FOvercast.2 mph93%30.18 "Hg5 mi
11:50 pm
Sat, Dec 3
34 °FOvercast.2 mph87%30.18 "Hg6 mi
11:20 pm32 °FOvercast.1 mph93%30.18 "Hg5 mi
10:50 pm32 °FOvercast.No wind93%30.18 "Hg5 mi
10:20 pm32 °FOvercast.No wind93%30.15 "Hg5 mi
9:50 pm32 °FPassing clouds.1 mph93%30.15 "Hg5 mi
9:20 pm32 °FOvercast.2 mph93%30.15 "Hg4 mi
8:50 pm32 °FOvercast.3 mph93%30.15 "Hg5 mi
8:20 pm32 °FOvercast.3 mph93%30.15 "Hg6 mi
7:50 pm32 °FOvercast.3 mph87%30.15 "Hg5 mi
7:20 pm34 °FOvercast.1 mph87%30.15 "Hg6 mi
Weather by CustomWeather, © 2016

See weather overviewHow to use our weather pages